[[{"header":{"parameterUnit":"m.s-1","parameterCategory":1,"la1":30.2991,"la2":30.254,"lo1":-89.0895,"lo2":-89.0444,"dy":0.0017,"dx":0.0017,"nx":28,"ny":28,"refTime":"2025-07-04T03:00:00:Z","depth":0,"parameterNumber":2,"parameterNumberName":"U-component_of_WINDS"},"data":[0,0,0,0,0,0,0,0,0,0,0,0,0,0,0,0,0,0,0,0,0,0,0,0,0,0,0,0,0,0,0,0,0,0,0,0,0,0,0,0,0,0,0,0,0,0,0,0,0,0,0,0,0,0,0,0,0,0,-0.7029,-0.7028,0,-0.6964,-0.6963,-0.6962,-0.6942,-0.6942,-0.6942,-0.6943,-0.6868,-0.6866,-0.6863,0,0,0,0,0,0,0,0,0,0,0,0,0,-0.7129,-0.7128,-0.7029,-0.7028,-0.7027,-0.6964,-0.6963,-0.6962,-0.6942,-0.6942,-0.6943,-0.6943,-0.6869,-0.6866,-0.6863,0,0,0,0,0,0,0,0,0,0,0,0,0,-0.7077,-0.7127,-0.7029,-0.701,-0.7007,-0.6964,-0.6963,-0.6962,-0.6942,-0.6942,-0.6943,-0.6943,-0.687,-0.6866,-0.6863,-0.6832,0,0,-0.6852,-0.6851,0,0,0,0,0,0,0,0,-0.708,-0.7073,-0.7013,-0.7011,-0.7008,-0.6962,-0.6971,-0.6918,-0.6942,-0.6966,-0.6943,-0.6943,-0.6898,-0.6892,-0.6879,-0.6828,-0.6825,-0.6852,-0.685,-0.6848,-0.6847,0,0,0,0,0,0,0,-0.7084,-0.7076,-0.7003,-0.7012,-0.7009,-0.7002,-0.6995,-0.6961,-0.693,-0.6964,-0.6963,-0.6956,-0.6897,-0.6882,-0.6877,-0.6824,-0.6852,-0.6849,-0.6847,-0.6846,-0.6745,-0.6745,0,0,0,0,0,0,-0.7092,-0.7079,-0.7005,-0.7001,-0.7046,-0.7,-0.6992,-0.6976,-0.693,-0.6924,-0.6955,-0.6955,-0.6888,-0.6881,-0.6874,-0.6836,-0.6848,-0.6845,-0.6843,-0.6746,-0.6745,-0.6745,0,0,0,0,0,0,-0.7094,-0.7085,-0.7007,-0.704,-0.7029,-0.6998,-0.6979,-0.6974,-0.696,-0.6924,-0.6917,-0.6946,-0.6888,-0.6879,-0.6843,-0.6833,-0.6844,-0.6841,-0.6747,-0.6746,-0.6745,-0.6757,0,0,0,0,0,0,-0.7097,-0.7086,-0.7075,-0.704,-0.7028,-0.6979,-0.6979,-0.6973,-0.6955,-0.6954,-0.6914,-0.6907,-0.6888,-0.6849,-0.684,-0.6828,-0.6838,-0.6747,-0.6746,-0.6745,-0.6758,-0.6757,-0.6756,0,0,0,0,0,-0.71,-0.7079,-0.7075,-0.7066,-0.7014,-0.6979,-0.6972,-0.6952,-0.6954,-0.6942,-0.6919,-0.6909,-0.6836,-0.6845,-0.6835,-0.6822,-0.6748,-0.6746,-0.6745,-0.6758,-0.6757,-0.6756,0,0,0,0,0,0,-0.7111,-0.7074,-0.7069,-0.7036,-0.7011,-0.6976,-0.696,-0.6951,-0.6923,-0.6923,-0.6897,-0.6888,-0.6854,-0.6834,-0.6846,-0.679,-0.6791,-0.6788,-0.6804,-0.6803,-0.6803,-0.6808,-0.6835,0,0,0,0,0,-0.711,-0.7087,-0.7055,-0.7029,-0.7017,-0.6991,-0.6975,-0.6962,-0.6934,-0.6923,-0.6897,-0.6868,-0.6839,-0.682,-0.6791,-0.6755,-0.6746,-0.6741,-0.6741,-0.674,-0.6737,-0.6718,-0.6716,-0.674,-0.674,-0.674,0,0,-0.7107,-0.7084,-0.707,-0.7031,-0.701,-0.6985,-0.6982,-0.6955,-0.6936,-0.6918,-0.6884,-0.6864,-0.683,-0.6795,-0.6778,-0.6777,-0.6729,-0.6739,-0.6739,-0.6736,-0.6716,-0.6714,-0.6712,-0.6739,-0.6739,-0.674,0,0,-0.7089,-0.7069,-0.7046,-0.7026,-0.6996,-0.6979,-0.6974,-0.694,-0.6927,-0.6893,-0.6879,-0.6855,-0.6805,-0.6782,-0.6764,-0.6739,-0.6729,-0.673,-0.6726,-0.6708,-0.6706,-0.6704,-0.6695,-0.6693,-0.6728,-0.6728,-0.6728,0,-0.7088,-0.7052,-0.7034,-0.7009,-0.6992,-0.6978,-0.6954,-0.6934,-0.6895,-0.6883,-0.6884,-0.6822,-0.6798,-0.6758,-0.6752,-0.6738,-0.673,-0.6734,-0.6708,-0.6706,-0.6704,-0.6695,-0.6692,-0.6728,-0.6728,-0.6728,-0.6728,0,-0.7052,-0.7028,-0.7012,-0.6978,-0.6959,-0.6935,-0.6912,-0.6895,-0.6884,-0.6867,-0.6832,-0.6804,-0.6769,-0.6759,-0.6746,-0.6717,-0.6718,-0.6713,-0.6714,-0.6702,-0.6694,-0.669,-0.6729,-0.6728,-0.6728,-0.6728,0,0,-0.7037,-0.6996,-0.6991,-0.6976,-0.6942,-0.6922,-0.6897,-0.6866,-0.6852,-0.6825,-0.6803,-0.6762,-0.6759,-0.6739,-0.6724,-0.6708,-0.6691,-0.6705,-0.6704,-0.6704,-0.6657,-0.666,-0.6657,-0.6685,-0.6684,-0.6683,-0.666,0,-0.7015,-0.6971,-0.6956,-0.6919,-0.6896,-0.6883,-0.6861,-0.6837,-0.6821,-0.6797,-0.6778,-0.675,-0.6748,-0.6735,-0.6719,-0.6697,-0.6681,-0.6698,-0.6662,-0.6661,-0.6671,-0.6653,-0.6655,-0.6635,-0.6657,-0.6656,-0.6656,0,-0.6982,-0.6959,-0.6921,-0.6893,-0.6882,-0.6863,-0.6834,-0.6812,-0.6785,-0.6774,-0.6753,-0.674,-0.6712,-0.6715,-0.6676,-0.6688,-0.6672,-0.6659,-0.6658,-0.6653,-0.6657,-0.6647,-0.6628,-0.6625,-0.665,-0.6651,-0.6651,0,-0.6976,-0.6935,-0.6907,-0.6894,-0.686,-0.6847,-0.6831,-0.6805,-0.6788,-0.6763,-0.6751,-0.6722,-0.6705,-0.6682,-0.6661,-0.6666,-0.6624,-0.6625,-0.6613,-0.6613,-0.6603,-0.6604,-0.6581,-0.6594,-0.6594,-0.6594,-0.6594,0,-0.6952,-0.6929,-0.6904,-0.6887,-0.6861,-0.6843,-0.6817,-0.68,-0.6778,-0.6756,-0.6742,-0.6722,-0.6696,-0.6672,-0.6655,-0.6625,-0.6618,-0.6607,-0.6603,-0.6608,-0.661,-0.6597,-0.6598,-0.6593,-0.6594,-0.6594,-0.6594,0,-0.6939,-0.6922,-0.6891,-0.6862,-0.6854,-0.6836,-0.6811,-0.6793,-0.6777,-0.675,-0.6743,-0.6716,-0.6688,-0.6665,-0.6627,-0.6616,-0.6584,-0.6579,-0.6594,-0.6592,-0.6581,-0.6582,-0.6548,-0.6543,-0.656,-0.656,-0.656,0,-0.6925,-0.6908,-0.6878,-0.6864,-0.685,-0.6827,-0.6811,-0.6792,-0.6775,-0.6745,-0.673,-0.6702,-0.6678,-0.6632,-0.6608,-0.6579,-0.6574,-0.6564,-0.6569,-0.6576,-0.6574,-0.6575,-0.6573,-0.6563,-0.6563,-0.6563,-0.6563,0,-0.6902,-0.6895,-0.6873,-0.6849,-0.683,-0.6809,-0.6788,-0.6776,-0.6754,-0.6736,-0.6708,-0.669,-0.6653,-0.6624,-0.6593,-0.6575,-0.6565,-0.6562,-0.6558,-0.6562,-0.6572,-0.6567,-0.6592,-0.6562,-0.6562,-0.6562,-0.6562,-0.6562,-0.6889,-0.6873,-0.685,-0.6827,-0.6809,-0.679,-0.6773,-0.6756,-0.6733,-0.6703,-0.6693,-0.6665,-0.6639,-0.6597,-0.6579,-0.6556,-0.6555,-0.6548,-0.6546,-0.6545,-0.6546,-0.6577,-0.655,-0.655,-0.655,-0.655,-0.655,0,-0.6865,-0.6851,-0.6829,-0.6801,-0.6782,-0.6778,-0.6754,-0.6738,-0.6714,-0.6692,-0.667,-0.6638,-0.6611,-0.6586,-0.6558,-0.6543,-0.6538,-0.6536,-0.6537,-0.6533,-0.6548,-0.6555,-0.6541,-0.6541,-0.6541,-0.6541,-0.6541,-0.6542,-0.6851,-0.6825,-0.6815,-0.678,-0.6765,-0.6739,-0.6726,-0.6708,-0.669,-0.6657,-0.6635,-0.662,-0.6597,-0.6567,-0.6542,-0.6535,-0.6525,-0.6525,-0.6517,-0.6531,-0.6532,-0.6533,-0.6539,-0.6523,-0.6523,-0.6503,-0.6503,-0.6503]},{"header":{"parameterUnit":"m.s-1","parameterCategory":1,"la1":30.2991,"la2":30.254,"lo1":-89.0895,"lo2":-89.0444,"dy":0.0017,"dx":0.0017,"nx":28,"ny":28,"refTime":"2025-07-04T03:00:00:Z","depth":0,"parameterNumber":3,"parameterNumberName":"V-component_of_WINDS"},"data":[0,0,0,0,0,0,0,0,0,0,0,0,0,0,0,0,0,0,0,0,0,0,0,0,0,0,0,0,0,0,0,0,0,0,0,0,0,0,0,0,0,0,0,0,0,0,0,0,0,0,0,0,0,0,0,0,0,0,2.4491,2.449,0,2.4414,2.4413,2.4412,2.4388,2.4388,2.4388,2.4389,2.4302,2.43,2.4297,0,0,0,0,0,0,0,0,0,0,0,0,0,2.4611,2.4609,2.4491,2.449,2.4489,2.4414,2.4413,2.4412,2.4388,2.4388,2.4388,2.4389,2.4303,2.43,2.4297,0,0,0,0,0,0,0,0,0,0,0,0,0,2.4549,2.4608,2.4491,2.4468,2.4465,2.4414,2.4413,2.4412,2.4387,2.4388,2.4389,2.4389,2.4304,2.43,2.4296,2.4261,0,0,2.4284,2.4283,0,0,0,0,0,0,0,0,2.4552,2.4544,2.4472,2.447,2.4466,2.4411,2.4424,2.4361,2.4387,2.4417,2.4389,2.4389,2.4338,2.4331,2.4315,2.4257,2.4253,2.4284,2.4282,2.428,2.4279,0,0,0,0,0,0,0,2.4557,2.4547,2.446,2.4471,2.4468,2.446,2.4451,2.4412,2.4375,2.4414,2.4412,2.4404,2.4336,2.4319,2.4313,2.4252,2.4284,2.4281,2.4278,2.4277,2.4161,2.4161,0,0,0,0,0,0,2.4566,2.4551,2.4463,2.4458,2.4512,2.4457,2.4448,2.4428,2.4375,2.4368,2.4404,2.4403,2.4325,2.4317,2.431,2.4265,2.428,2.4276,2.4274,2.4162,2.4161,2.416,0,0,0,0,0,0,2.4568,2.4558,2.4466,2.4504,2.4492,2.4454,2.4432,2.4426,2.4409,2.4367,2.436,2.4393,2.4326,2.4315,2.4274,2.4262,2.4274,2.4271,2.4163,2.4162,2.4161,2.4175,0,0,0,0,0,0,2.4572,2.4559,2.4546,2.4504,2.449,2.4433,2.4432,2.4424,2.4403,2.4402,2.4356,2.4348,2.4325,2.428,2.427,2.4256,2.4268,2.4164,2.4162,2.4161,2.4175,2.4175,2.4174,0,0,0,0,0,2.4576,2.4552,2.4546,2.4535,2.4474,2.4433,2.4424,2.44,2.4403,2.4389,2.4362,2.435,2.4265,2.4276,2.4264,2.4249,2.4164,2.4163,2.4161,2.4176,2.4175,2.4174,0,0,0,0,0,0,2.459,2.4545,2.4539,2.45,2.4471,2.4429,2.441,2.44,2.4367,2.4367,2.4336,2.4326,2.4287,2.4264,2.4277,2.4213,2.4214,2.421,2.4229,2.4228,2.4227,2.4233,2.4264,0,0,0,0,0,2.4589,2.4562,2.4523,2.4493,2.4479,2.4447,2.4428,2.4413,2.438,2.4367,2.4337,2.4304,2.427,2.4247,2.4214,2.4173,2.4162,2.4157,2.4156,2.4156,2.4152,2.4129,2.4127,2.4155,2.4155,2.4155,0,0,2.4586,2.4558,2.4542,2.4495,2.447,2.4441,2.4437,2.4405,2.4383,2.4361,2.4321,2.4298,2.4259,2.4218,2.4198,2.4198,2.4142,2.4154,2.4154,2.415,2.4127,2.4125,2.4122,2.4154,2.4154,2.4155,0,0,2.4565,2.4541,2.4514,2.4491,2.4455,2.4434,2.4428,2.4388,2.4373,2.4333,2.4317,2.4288,2.423,2.4204,2.4182,2.4154,2.4142,2.4144,2.4139,2.4117,2.4115,2.4113,2.4103,2.41,2.4141,2.4141,2.4141,0,2.4564,2.4521,2.45,2.4471,2.445,2.4433,2.4405,2.4382,2.4336,2.4321,2.4322,2.425,2.4222,2.4176,2.4169,2.4153,2.4143,2.4148,2.4118,2.4115,2.4113,2.4103,2.4099,2.4141,2.4141,2.4141,2.4141,0,2.4523,2.4493,2.4475,2.4435,2.4412,2.4383,2.4356,2.4336,2.4323,2.4302,2.4262,2.4229,2.4189,2.4177,2.4162,2.4128,2.4129,2.4124,2.4124,2.4111,2.4101,2.4097,2.4142,2.4142,2.4142,2.4142,0,0,2.4505,2.4456,2.445,2.4432,2.4393,2.4368,2.4339,2.4302,2.4285,2.4255,2.4228,2.4181,2.4177,2.4153,2.4136,2.4117,2.4098,2.4115,2.4113,2.4112,2.4058,2.4061,2.4057,2.409,2.4089,2.4089,2.4061,0,2.4478,2.4427,2.4409,2.4365,2.4338,2.4323,2.4297,2.4269,2.4249,2.4222,2.4199,2.4166,2.4164,2.4149,2.413,2.4104,2.4086,2.4106,2.4063,2.4062,2.4073,2.4052,2.4055,2.403,2.4057,2.4056,2.4056,0,2.444,2.4413,2.4368,2.4334,2.4322,2.4299,2.4265,2.424,2.4208,2.4195,2.417,2.4155,2.4122,2.4126,2.4079,2.4093,2.4075,2.406,2.4058,2.4052,2.4057,2.4045,2.4022,2.4018,2.405,2.405,2.405,0,2.4431,2.4383,2.4351,2.4336,2.4295,2.428,2.4262,2.4231,2.4211,2.4181,2.4167,2.4133,2.4114,2.4087,2.4062,2.4068,2.4018,2.402,2.4005,2.4006,2.3994,2.3995,2.3967,2.3984,2.3984,2.3984,2.3984,0,2.4403,2.4376,2.4347,2.4326,2.4296,2.4275,2.4244,2.4225,2.4198,2.4173,2.4157,2.4133,2.4103,2.4075,2.4055,2.402,2.4011,2.3999,2.3994,2.4,2.4001,2.3986,2.3987,2.3983,2.3983,2.3983,2.3984,0,2.4387,2.4367,2.433,2.4297,2.4288,2.4266,2.4236,2.4215,2.4197,2.4165,2.4156,2.4125,2.4092,2.4066,2.4021,2.4008,2.3971,2.3965,2.3982,2.3979,2.3966,2.3968,2.3927,2.392,2.3942,2.3942,2.3942,0,2.437,2.4349,2.4315,2.4298,2.4281,2.4254,2.4235,2.4214,2.4194,2.4158,2.4141,2.4108,2.4079,2.4026,2.3998,2.3964,2.3958,2.3946,2.3952,2.396,2.3957,2.3958,2.3956,2.3945,2.3945,2.3944,2.3944,0,2.4341,2.4333,2.4307,2.4278,2.4257,2.4232,2.4207,2.4194,2.4168,2.4146,2.4114,2.4092,2.4049,2.4015,2.3979,2.3958,2.3946,2.3943,2.3938,2.3943,2.3954,2.3948,2.3979,2.3944,2.3944,2.3944,2.3944,2.3944,2.4323,2.4305,2.4279,2.4251,2.4231,2.4209,2.4188,2.4168,2.4142,2.4107,2.4095,2.4062,2.4031,2.3983,2.3962,2.3934,2.3933,2.3926,2.3923,2.3922,2.3922,2.396,2.3928,2.3927,2.3927,2.3927,2.3927,0,2.4293,2.4276,2.4251,2.4219,2.4197,2.4192,2.4165,2.4146,2.4118,2.4092,2.4066,2.4029,2.3997,2.3969,2.3935,2.3918,2.3912,2.391,2.391,2.3906,2.3925,2.3933,2.3916,2.3916,2.3916,2.3916,2.3916,2.3916,2.4274,2.4244,2.4233,2.4192,2.4175,2.4144,2.4129,2.4108,2.4088,2.4049,2.4023,2.4007,2.3979,2.3945,2.3915,2.3907,2.3895,2.3894,2.3885,2.3903,2.3904,2.3906,2.3913,2.3892,2.3892,2.3868,2.3868,2.3868]}]]